Muskogee, OK

10:57 PM CDT on August 30, 2016 (GMT -0500)
Davis

Weather History for KMKO - October, 2012

Change the Weather History Date:

Saturday, October 6, 2012

  Actual Average Record
Temperature  
Mean Temperature 46 °F -  
Max Temperature 51 °F 75 °F 88 °F (1997)
Min Temperature 41 °F 51 °F 41 °F (2012)
Degree Days  
Heating Degree Days 18    
Moisture  
Dew Point 37 °F    
Average Humidity 71    
Maximum Humidity 86    
Minimum Humidity 48    
Precipitation  
Precipitation 0.00 in - - ()
Sea Level Pressure  
Sea Level Pressure 30.30 in    
Wind  
Wind Speed 10 mph (NNE)    
Max Wind Speed 17 mph    
Max Gust Speed 22 mph    
Visibility 10 miles    
Events Rain , Thunderstorm    
Averages and records for this station are not official NWS values.
T = Trace of Precipitation, MM = Missing Value Source: NWS Daily Summary

Daily Weather History Graph

Daily Weather History Graph

Search for Another Location

Airport or City:

Trip Planner

Search our weather history database for the weather conditions in past years. The results will help you decide how hot, cold, wet, or windy it might be!

Date:

Astronomy

Oct. 06, 2012 Rise Set
Actual Time 7:20 AM CDT 6:57 PM CDT
Civil Twilight 6:55 AM CDT 7:22 PM CDT
Nautical Twilight 6:25 AM CDT 7:52 PM CDT
Astronomical Twilight 5:56 AM CDT 8:21 PM CDT
Moon 11:22 PM CDT (10/6) 1:06 PM CDT (10/6)
Length of Visible Light 12h 27m
Length of Day
11h 36m
Waning Gibbous, 65% of the Moon is Illuminated
Oct 6
Waning Gibbous
Oct 8
Last Quarter
Oct 15
New
Oct 21
First Quarter
Oct 29
Full

Hourly Weather History & Observations

Time (CDT) Temp. Windchill Dew Point Humidity Pressure Visibility Wind Dir Wind Speed Gust Speed Precip Events Conditions
12:53 AM 45.0 °F 40.1 °F 37.9 °F 76% 30.25 in 10.0 mi North 9.2 mph - N/A   Clear
1:53 AM 45.0 °F 40.1 °F 39.0 °F 80% 30.26 in 10.0 mi NNE 9.2 mph - N/A   Clear
2:53 AM 44.1 °F 38.1 °F 37.9 °F 79% 30.27 in 10.0 mi NNE 11.5 mph - N/A   Partly Cloudy
3:53 AM 43.0 °F 37.7 °F 37.0 °F 80% 30.27 in 10.0 mi NNE 9.2 mph - N/A   Partly Cloudy
4:53 AM 42.1 °F 37.7 °F 37.9 °F 85% 30.29 in 10.0 mi North 6.9 mph - N/A   Clear
5:53 AM 42.1 °F 37.7 °F 37.9 °F 85% 30.29 in 10.0 mi NE 6.9 mph - N/A   Clear
6:53 AM 42.1 °F 38.4 °F 37.0 °F 82% 30.27 in 10.0 mi East 5.8 mph - N/A   Partly Cloudy
7:53 AM 43.0 °F 39.5 °F 37.0 °F 80% 30.30 in 10.0 mi NNE 5.8 mph - N/A   Overcast
8:53 AM 45.0 °F 40.6 °F 36.0 °F 71% 30.30 in 10.0 mi NE 8.1 mph - N/A   Overcast
9:53 AM 46.9 °F - 36.0 °F 66% 30.31 in 10.0 mi NE 10.4 mph - N/A   Overcast
10:17 AM 46.4 °F 41.1 °F 35.6 °F 66% 30.32 in 10.0 mi NNE 11.5 mph - N/A Thunderstorm Thunderstorm
10:36 AM 46.4 °F 40.7 °F 35.6 °F 66% 30.31 in 10.0 mi NNE 12.7 mph - N/A   Overcast
10:53 AM 46.9 °F - 36.0 °F 66% 30.32 in 10.0 mi NNE 10.4 mph - N/A   Overcast
11:23 AM 46.4 °F 40.7 °F 35.6 °F 66% 30.31 in 10.0 mi NNE 12.7 mph - 0.00 in Thunderstorm Thunderstorm
11:42 AM 46.4 °F 41.5 °F 37.4 °F 71% 30.32 in 10.0 mi NNE 10.4 mph - 0.00 in Rain Light Rain
11:53 AM 48.0 °F - 36.0 °F 63% 30.32 in 10.0 mi NNE 11.5 mph - 0.00 in Rain Light Rain
12:53 PM 50.0 °F - 34.0 °F 54% 30.31 in 10.0 mi NNE 16.1 mph 21.9 mph N/A   Overcast
1:53 PM 51.1 °F - 33.1 °F 50% 30.28 in 10.0 mi NNE 17.3 mph - N/A   Overcast
2:53 PM 50.0 °F - 30.9 °F 48% 30.26 in 10.0 mi NE 11.5 mph - N/A   Overcast
3:53 PM 48.9 °F - 37.0 °F 64% 30.27 in 10.0 mi NNE 9.2 mph - 0.00 in Rain Light Rain
4:53 PM 48.9 °F - 39.0 °F 69% 30.27 in 10.0 mi North 13.8 mph - 0.00 in Rain Light Rain
6:53 PM 46.9 °F - 42.1 °F 83% 30.29 in 10.0 mi North 6.9 mph - 0.00 in   Overcast
7:53 PM 46.9 °F - 41.0 °F 80% 30.30 in 10.0 mi North 11.5 mph - N/A   Overcast
8:53 PM 46.9 °F - 37.0 °F 68% 30.32 in 10.0 mi NNE 11.5 mph - N/A   Overcast
9:53 PM 46.0 °F 42.5 °F 36.0 °F 68% 30.32 in 10.0 mi NNE 6.9 mph - N/A   Overcast
10:53 PM 43.0 °F 38.8 °F 36.0 °F 76% 30.33 in 10.0 mi North 6.9 mph - N/A   Scattered Clouds
11:53 PM 41.0 °F 38.0 °F 37.0 °F 86% 30.34 in 10.0 mi NW 4.6 mph - N/A   Scattered Clouds